Regional Weather Roundup
Issued by NWS

Home | Current Version | Previous Version | Graphics & Text | Print | Product List | Glossary Off
Versions: 1 2 3 4 5 6 7 8 9 10 11 12 13 14 15 16 17 18 19 20 21 22 23 24 25 26 27 28 29 30 31 32 33 34 35 36 37 38 39 40 41 42 43 44 45 46 47 48 49 50

000
ASUS43 KLSX 120007
RWRMO

WEATHER SUMMARY FOR MISSOURI
NATIONAL WEATHER SERVICE SPRINGFIELD MO
600 PM CST MON DEC 11 2017

NOTE: "FAIR" INDICATES FEW OR NO CLOUDS BELOW 12,000 FEET WITH NO
       SIGNIFICANT WEATHER AND/OR OBSTRUCTIONS TO VISIBILITY.
       CURRENT SKY AND/OR WEATHER CONDITIONS ARE NOT AVAILABLE FOR
       CHILLICOTHE AND FARMINGTON.

MOZ001>031-035>038-043-044-053-054-120100-
...NORTHERN AND WESTERN MISSOURI...

CITY           SKY/WX    TMP DP  RH WIND       PRES   REMARKS
KANSAS CTY INT CLOUDY    47  31  53 NW20G35   30.07R
6HR MIN TEMP:  47; 6HR MAX TEMP:  56;

KANSAS C DTWN  CLOUDY    50  30  46 NW17G28   30.07R
6HR MIN TEMP:  50; 6HR MAX TEMP:  58;

LEE`S SUMMIT     N/A     49  31  49 NW22G37   30.07R
6HR MIN TEMP:  49; 6HR MAX TEMP:  57;

ST JOSEPH      LGT RAIN  44  36  73 N16G31    30.11R
6HR MIN TEMP:  44; 6HR MAX TEMP:  55; 6HR PCP: TRACE;

CHILLICOTHE      N/A     46  32  58 NW15G28   30.03R
6HR MIN TEMP:  46; 6HR MAX TEMP:  54;

KIRKSVILLE     CLOUDY    42  34  73 NW18G30   29.98R
6HR MIN TEMP:  42; 6HR MAX TEMP:  52;


$$
MOZ066>068-077>081-088>096-101>105-120100-
...SOUTHWEST MISSOURI...

CITY           SKY/WX    TMP DP  RH WIND       PRES   REMARKS
SPRINGFIELD    CLOUDY    52  23  32 NW17G26   30.02R
6HR MIN TEMP:  51; 6HR MAX TEMP:  61;

JOPLIN         CLOUDY    53  26  35 NW15      30.09R
6HR MIN TEMP:  53; 6HR MAX TEMP:  65;

BRANSON        MOCLDY    55  16  21 NW23G31   30.02R

$$
MOZ032>034-039>042-045>050-055>058-069>072-120100-
...CENTRAL MISSOURI...

CITY           SKY/WX    TMP DP  RH WIND       PRES   REMARKS
COLUMBIA       CLOUDY    49  31  49 NW21G35   29.96R
6HR MIN TEMP:  49; 6HR MAX TEMP:  56;

JEFFERSON CITY CLOUDY    51  30  44 NW14      29.98R
6HR MIN TEMP:  50; 6HR MAX TEMP:  57;

ROLLA          PTCLDY    49  28  44 NW20G26   29.95R
6HR MIN TEMP:  49; 6HR MAX TEMP:  59;

SEDALIA        CLOUDY    50  33  52 NW24G31   30.02R
6HR MIN TEMP:  50; 6HR MAX TEMP:  57;

WHITEMAN AFB   MOCLDY    49  30  48 NW17G31   29.99R
WARRENSBURG    CLOUDY    48  32  53 NW12G24   30.04R
OSAGE BEACH    PTCLDY    51  29  42 NW8G20    30.00R

$$
MOZ051-052-059>065-120100-
...EAST CENTRAL MISSOURI...

CITY           SKY/WX    TMP DP  RH WIND       PRES   REMARKS
ST LOUIS INTL  CLOUDY    49  31  49 NW18G41   29.89R
6HR MIN TEMP:  49; 6HR MAX TEMP:  58;

SPIRIT OF STL  CLOUDY    50  31  48 W16G37    29.90R
6HR MIN TEMP:  50; 6HR MAX TEMP:  59;

ST CHARLES     CLOUDY    50  30  46 NW28G43   29.88R
6HR MIN TEMP:  49; 6HR MAX TEMP:  56;


$$
MOZ072>076-082>087-097>100-106>115-120100-
...SOUTH CENTRAL AND SOUTHEAST MISSOURI...

CITY           SKY/WX    TMP DP  RH WIND       PRES   REMARKS
CAPE GIRARDEAU PTCLDY    54  24  31 NW22G36   29.90R
6HR MIN TEMP:  53; 6HR MAX TEMP:  60;

FARMINGTON     CLOUDY    50  26  39 NW9G20    29.91R
6HR MIN TEMP:  49; 6HR MAX TEMP:  65;

POPLAR BLUFF   MOCLDY    57  20  23 NW15G33   29.91R
6HR MIN TEMP:  57; 6HR MAX TEMP:  68;

WEST PLAINS    PTCLDY    52  20  28 W13G22    29.98R
6HR MIN TEMP:  52; 6HR MAX TEMP:  68;


$$



USA.gov is the U.S. government's official web portal to all federal, state and local government web resources and services.